Flag Weather past 2 weeks in Peterborough, England, United Kingdom

Now
48 °F

Fog.


Feels Like: 44 °F
Forecast: 41 / 52 °F
Wind: 9 mph from Northeast

Location: Wittering

Current Time: Nov 29, 2014 at 9:14:44 AM

Latest Report: Nov 29, 2014 at 7:50 AM


Visibility: 2 mi

Pressure: 29.83 "Hg

Humidity: 100%

Dew point: 48 °F

Location of PeterboroughLocation

Historic Weather in Peterborough — Graph

°F

Peterborough temperature yesterday

Maximum temperature yesterday: 50 °F (at 5:50 AM)
Minimum temperature yesterday: 46 °F (at 11:50 PM)
Average temperature yesterday: 49 °F

Past Weeks' High & Low Weather Summary

 TemperatureHumidityPressure
High57 °F (Nov 22, 1:50 PM)100% (Nov 14, 9:50 AM)30.33 "Hg (Nov 14, 9:50 AM)
Low30 °F (Nov 25, 6:50 AM)82% (Nov 14, 2:50 PM)29.39 "Hg (Nov 17, 3:50 AM)
Average45 °F97%29.86 "Hg
* Reported Nov 14 7:50 AM — Nov 29 7:50 AM, Peterborough, Weather by CustomWeather, © 2014

Note: Actual official high and low records may vary slightly from our data, if they occured in-between our weather recording intervals... More about our weather records

Advertising

Peterborough weather history for previous 24 hours

 ConditionsComfort  
Time TempWeatherWind HumidityBarometerVisibility
7:50 AM
Nov 29
48 °FFog.9 mph100%29.83 "Hg2 mi
6:50 AM48 °FFog.8 mph100%29.83 "Hg2 mi
5:50 AM48 °FFog.8 mph100%29.80 "Hg2 mi
4:50 AM48 °FFog.9 mph100%29.80 "Hg2 mi
3:50 AM48 °FFog.9 mph100%29.80 "Hg2 mi
2:50 AM48 °FFog.9 mph100%29.77 "Hg2 mi
1:50 AM48 °FFog.10 mph94%29.77 "Hg1 mi
12:50 AM48 °FFog.12 mph100%29.74 "Hg1 mi
11:50 PM
Nov 28
46 °FFog.6 mph100%29.77 "Hg1 mi
10:50 PM48 °FFog.8 mph100%29.77 "Hg2 mi
9:50 PM48 °FFog.7 mph94%29.77 "Hg2 mi
8:50 PM48 °FFog.9 mph100%29.74 "Hg2 mi
7:50 PM48 °FFog.9 mph94%29.74 "Hg2 mi
6:50 PM50 °FFog.12 mph94%29.71 "Hg3 mi
5:50 PM50 °FFog.12 mph94%29.71 "Hg3 mi
4:50 PM50 °FFog.10 mph94%29.71 "Hg3 mi
3:50 PM50 °FFog.12 mph100%29.68 "Hg3 mi
2:50 PM50 °FFog.10 mph100%29.68 "Hg2 mi
1:50 PM50 °FFog.10 mph100%29.65 "Hg1 mi
12:50 PM50 °FFog.10 mph100%29.65 "Hg1 mi
11:50 AM50 °FFog.10 mph100%29.65 "Hg1 mi
10:50 AM50 °FFog.10 mph100%29.65 "Hg1 mi
9:50 AM50 °FFog.12 mph100%29.65 "Hg2 mi
Weather by CustomWeather, © 2014

See weather overviewHow to use our weather pages